Simultaneous Nadir Overpasses (SNOs) Predictions

Prediction of SNOs between METOP-B and NPP Satellite Orbit:

Table of predicted SNOs for the next 14.0 days since TLE Epoch: 6/26/2018
Index Date (METOP-B) Time (METOP-B) Lat,Lon (METOP-B) SZA (METOP-B ) Date (NPP) Time (NPP) Lat,Lon (NPP) SZA (NPP ) Distance(km) Time Diff (sec)
1 07/10/2018 16:56:07 -73.58, 99.10 128.49 07/10/2018 16:55:00 -73.62, 96.22 128.27 90.58 67
2 07/10/2018 17:46:51 73.37, -94.04 51.34 07/10/2018 17:45:41 73.37, -95.92 51.47 59.85 70
3 07/10/2018 18:37:34 -73.31, 73.14 128.72 07/10/2018 18:36:23 -73.27, 71.63 128.65 48.71 71
4 07/10/2018 19:28:18 73.10,-119.98 51.11 07/10/2018 19:27:05 73.08,-120.64 51.14 21.33 73
5 07/10/2018 20:19:02 -72.98, 47.10 128.99 07/10/2018 20:17:47 -72.98, 46.90 128.97 6.62 75
6 07/10/2018 21:09:43 72.92,-145.70 50.96 07/10/2018 21:08:32 72.93,-145.70 50.99 1.28 71




NCC Satellite Simultaneous Nadir Overpasses (SNOs) Prediction Service
